Location: Cisewo
(53.3833°N, 14.9000°E)
Time: 11:14:30
(UTC+00:00)

Cosmos 968 Rocket - Pass Details

Date: 18 April 2021
Orbit: 741 x 770 km, 74.0° (Epoch: 14 May)

Event Time Altitude Azimuth Distance (km) Brightness Sun altitude
Exits shadow 23:24:15 77° 167° (SSE) 797 3.3 -25.2°
Maximum altitude 23:24:34 82° 114° (ESE) 785 3.4 -25.2°
Drops below altitude 10° 23:29:52 10° 28° (NNE) 2,323 6.9 -25.1°
Sets 23:32:15 0° 27° (NNE) 3,251 7.9 -25.1°
